[[{"header":{"parameterUnit":"m.s-1","parameterCategory":1,"la1":30.2991,"la2":30.254,"lo1":-89.0895,"lo2":-89.0444,"dy":0.0017,"dx":0.0017,"nx":28,"ny":28,"refTime":"2025-12-18T09:00:00:Z","depth":0,"parameterNumber":2,"parameterNumberName":"U-component_of_WINDS"},"data":[0,0,0,0,0,0,0,0,0,0,0,0,0,0,0,0,0,0,0,0,0,0,0,0,0,0,0,0,0,0,0,0,0,0,0,0,0,0,0,0,0,0,0,0,0,0,0,0,0,0,0,0,0,0,0,0,0,0,-4.0123,-4.0123,0,-4.0087,-4.0087,-4.0086,-3.9977,-3.9975,-3.9972,-3.997,-3.9936,-3.9938,-3.9939,0,0,0,0,0,0,0,0,0,0,0,0,0,-4.0102,-4.0103,-4.0123,-4.0123,-4.0123,-4.0087,-4.0087,-4.0086,-3.9977,-3.9974,-3.9972,-3.9969,-3.9936,-3.9937,-3.9939,0,0,0,0,0,0,0,0,0,0,0,0,0,-4.0093,-4.0103,-4.0124,-4.0064,-4.0058,-4.0087,-4.0087,-4.0086,-3.9978,-3.9974,-3.9971,-3.9967,-3.9935,-3.9937,-3.9939,-4.0024,0,0,-3.9945,-3.9946,0,0,0,0,0,0,0,0,-4.0094,-4.0094,-4.0073,-4.0068,-4.0062,-4.0033,-4.0067,-4.0066,-3.9979,-4.0009,-3.997,-3.9966,-3.9972,-3.997,-3.9972,-4.0023,-4.0021,-3.9946,-3.9947,-3.9948,-3.9948,0,0,0,0,0,0,0,-4.0094,-4.0095,-4.0109,-4.0073,-4.0066,-4.004,-4.0035,-4.0066,-4.0011,-4.0006,-3.9998,-3.9995,-3.9968,-3.997,-3.997,-4.0021,-3.9946,-3.9947,-3.9949,-3.9949,-4.0139,-4.0143,0,0,0,0,0,0,-4.0103,-4.0096,-4.011,-4.0108,-4.0069,-4.0043,-4.0037,-4.0046,-4.001,-4.0001,-3.9998,-3.999,-3.9968,-3.9968,-3.9968,-4.0064,-3.9948,-3.995,-3.9951,-4.0135,-4.014,-4.0144,0,0,0,0,0,0,-4.0103,-4.0105,-4.0112,-4.01,-4.0099,-4.0048,-4.0058,-4.0047,-4.0049,-4.0004,-3.9994,-4.001,-3.9965,-3.9966,-4.0011,-4.0062,-3.995,-3.9952,-4.0131,-4.0137,-4.0142,-4.0259,0,0,0,0,0,0,-4.0103,-4.0106,-4.0137,-4.0101,-4.01,-4.0154,-4.0061,-4.0049,-4.0052,-4.0041,-4.0013,-4.0005,-3.9962,-4.0008,-4.0013,-4.0063,-3.9954,-4.0126,-4.0133,-4.014,-4.025,-4.0268,-4.0283,0,0,0,0,0,-4.0102,-4.0172,-4.0139,-4.0141,-4.0137,-4.0157,-4.0156,-4.0105,-4.0057,-4.0088,-4.0059,-4.0006,-4.0056,-4.0014,-4.0018,-4.0069,-4.0123,-4.0131,-4.014,-4.0242,-4.0264,-4.0282,0,0,0,0,0,0,-4.0216,-4.0166,-4.0129,-4.0189,-4.0178,-4.0139,-4.0176,-4.013,-4.0133,-4.0123,-4.0061,-4.0055,-4.0109,-4.0094,-4.0048,-4.0149,-4.008,-4.009,-4.0157,-4.0177,-4.0193,-4.0195,-3.9956,0,0,0,0,0,-4.0248,-4.0268,-4.0223,-4.0281,-4.0277,-4.0228,-4.0235,-4.0196,-4.0183,-4.0178,-4.0152,-4.0143,-4.0156,-4.0166,-4.0176,-4.0248,-4.024,-4.0285,-4.0302,-4.0315,-4.0324,-4.036,-4.038,-4.0172,-4.0172,-4.0172,0,0,-4.0315,-4.029,-4.0306,-4.0303,-4.029,-4.0312,-4.0225,-4.0252,-4.0268,-4.0182,-4.0223,-4.0204,-4.0189,-4.0248,-4.0272,-4.0237,-4.038,-4.0326,-4.0337,-4.0339,-4.0371,-4.0391,-4.0408,-4.0178,-4.0177,-4.0176,0,0,-4.0446,-4.043,-4.0475,-4.0464,-4.0444,-4.0411,-4.0423,-4.039,-4.0374,-4.0414,-4.035,-4.0369,-4.0393,-4.0384,-4.0384,-4.0513,-4.0463,-4.0518,-4.0603,-4.0639,-4.0656,-4.067,-4.0715,-4.0732,-4.0527,-4.0528,-4.0528,0,-4.0532,-4.0561,-4.0505,-4.0536,-4.0536,-4.0459,-4.0505,-4.0497,-4.0483,-4.0485,-4.0446,-4.0474,-4.0459,-4.0514,-4.0545,-4.0548,-4.0558,-4.052,-4.0658,-4.0671,-4.0684,-4.0726,-4.0744,-4.0534,-4.0534,-4.0533,-4.0532,0,-4.0666,-4.0688,-4.0727,-4.0714,-4.0719,-4.0758,-4.0708,-4.072,-4.0682,-4.0654,-4.0695,-4.0674,-4.0677,-4.0688,-4.0652,-4.0739,-4.0717,-4.0669,-4.0598,-4.0711,-4.075,-4.0766,-4.0544,-4.0542,-4.054,-4.0538,0,0,-4.0868,-4.0822,-4.0838,-4.083,-4.0804,-4.082,-4.0856,-4.0858,-4.087,-4.0863,-4.0891,-4.0914,-4.0869,-4.0868,-4.083,-4.0862,-4.0965,-4.0809,-4.0808,-4.0838,-4.1058,-4.1094,-4.1113,-4.0932,-4.0935,-4.0938,-4.1059,0,-4.0991,-4.1047,-4.0998,-4.1064,-4.1083,-4.101,-4.1041,-4.1029,-4.1004,-4.1018,-4.099,-4.1007,-4.0947,-4.0945,-4.0974,-4.0946,-4.1008,-4.0937,-4.0958,-4.0959,-4.0962,-4.1134,-4.1171,-4.1287,-4.1074,-4.1077,-4.1078,0,-4.1143,-4.1141,-4.1209,-4.1177,-4.1183,-4.1212,-4.121,-4.1224,-4.1209,-4.1188,-4.1188,-4.1141,-4.1174,-4.1106,-4.1151,-4.1104,-4.111,-4.1098,-4.1102,-4.11,-4.1025,-4.1136,-4.1322,-4.1339,-4.1102,-4.11,-4.1098,0,-4.1281,-4.1296,-4.1338,-4.1335,-4.13,-4.1321,-4.1308,-4.1289,-4.1294,-4.1293,-4.1295,-4.13,-4.1302,-4.1306,-4.1262,-4.1217,-4.1313,-4.1241,-4.1297,-4.1298,-4.1319,-4.1318,-4.1508,-4.1326,-4.1326,-4.1326,-4.1325,0,-4.1423,-4.1467,-4.14,-4.1426,-4.1473,-4.1417,-4.1465,-4.1445,-4.1429,-4.145,-4.1389,-4.141,-4.1351,-4.1367,-4.1333,-4.1375,-4.1377,-4.1362,-4.1352,-4.1366,-4.1368,-4.1368,-4.1358,-4.133,-4.1329,-4.1328,-4.1327,0,-4.1585,-4.1542,-4.1582,-4.1546,-4.1538,-4.1574,-4.1543,-4.1566,-4.1537,-4.1565,-4.1568,-4.1523,-4.1538,-4.1495,-4.1504,-4.1481,-4.1542,-4.152,-4.1547,-4.1539,-4.1597,-4.1592,-4.1792,-4.1815,-4.1621,-4.1622,-4.1624,0,-4.1678,-4.1709,-4.1676,-4.1685,-4.1674,-4.169,-4.1694,-4.1641,-4.1648,-4.1633,-4.1658,-4.1668,-4.1673,-4.1701,-4.167,-4.1676,-4.1653,-4.1723,-4.1654,-4.1667,-4.1653,-4.165,-4.1653,-4.1737,-4.1739,-4.1741,-4.1743,0,-4.1846,-4.1823,-4.1831,-4.1831,-4.1837,-4.1836,-4.1829,-4.1841,-4.1784,-4.1795,-4.1809,-4.1813,-4.1821,-4.1832,-4.1832,-4.1819,-4.1772,-4.1765,-4.1778,-4.1792,-4.1806,-4.1798,-4.1584,-4.176,-4.1759,-4.1757,-4.1756,-4.1756,-4.1975,-4.2,-4.198,-4.199,-4.198,-4.1975,-4.1995,-4.1968,-4.1978,-4.198,-4.1948,-4.1969,-4.1954,-4.1949,-4.1941,-4.1957,-4.1925,-4.1944,-4.1949,-4.1954,-4.1963,-4.1805,-4.1957,-4.1957,-4.1956,-4.1956,-4.1955,0,-4.2139,-4.2123,-4.2133,-4.2126,-4.2134,-4.2088,-4.2079,-4.209,-4.2108,-4.2097,-4.2103,-4.212,-4.213,-4.21,-4.2106,-4.2124,-4.2103,-4.2128,-4.2125,-4.2123,-4.1992,-4.1979,-4.2145,-4.2145,-4.2145,-4.2145,-4.2145,-4.2145,-4.2226,-4.2264,-4.2239,-4.2272,-4.2256,-4.2274,-4.2273,-4.2269,-4.226,-4.228,-4.2288,-4.2268,-4.225,-4.2254,-4.2261,-4.2252,-4.2257,-4.2289,-4.2273,-4.2151,-4.2132,-4.2114,-4.2102,-4.2291,-4.2291,-4.2402,-4.2403,-4.2404]},{"header":{"parameterUnit":"m.s-1","parameterCategory":1,"la1":30.2991,"la2":30.254,"lo1":-89.0895,"lo2":-89.0444,"dy":0.0017,"dx":0.0017,"nx":28,"ny":28,"refTime":"2025-12-18T09:00:00:Z","depth":0,"parameterNumber":3,"parameterNumberName":"V-component_of_WINDS"},"data":[0,0,0,0,0,0,0,0,0,0,0,0,0,0,0,0,0,0,0,0,0,0,0,0,0,0,0,0,0,0,0,0,0,0,0,0,0,0,0,0,0,0,0,0,0,0,0,0,0,0,0,0,0,0,0,0,0,0,0.3777,0.3777,0,0.3807,0.3807,0.3807,0.384,0.384,0.3841,0.3841,0.3871,0.3872,0.3872,0,0,0,0,0,0,0,0,0,0,0,0,0,0.3748,0.3749,0.3777,0.3777,0.3777,0.3807,0.3807,0.3807,0.384,0.384,0.3841,0.3842,0.3871,0.3872,0.3872,0,0,0,0,0,0,0,0,0,0,0,0,0,0.3768,0.3749,0.3777,0.3797,0.3799,0.3807,0.3807,0.3808,0.384,0.384,0.3841,0.3842,0.3871,0.3872,0.3872,0.3861,0,0,0.3874,0.3874,0,0,0,0,0,0,0,0,0.3766,0.3769,0.3794,0.3796,0.3798,0.382,0.3808,0.3826,0.384,0.3824,0.3841,0.3842,0.3854,0.3856,0.386,0.3863,0.3864,0.3874,0.3874,0.3874,0.3875,0,0,0,0,0,0,0,0.3765,0.3767,0.3789,0.3794,0.3797,0.3805,0.3809,0.3812,0.3835,0.3826,0.3828,0.3831,0.3855,0.3859,0.3861,0.3865,0.3874,0.3874,0.3875,0.3875,0.3862,0.3862,0,0,0,0,0,0,0.3761,0.3766,0.3788,0.3789,0.3784,0.3805,0.3809,0.3812,0.3835,0.3839,0.3831,0.3833,0.3858,0.386,0.3862,0.3852,0.3874,0.3875,0.3875,0.3863,0.3862,0.3861,0,0,0,0,0,0,0.376,0.3762,0.3786,0.3779,0.3782,0.3805,0.3808,0.3813,0.3817,0.3839,0.3843,0.3831,0.3859,0.3861,0.3862,0.3853,0.3875,0.3876,0.3864,0.3863,0.3862,0.3831,0,0,0,0,0,0,0.3759,0.3762,0.3758,0.3778,0.3783,0.3785,0.3808,0.3813,0.3818,0.3821,0.384,0.3843,0.3859,0.3861,0.3862,0.3855,0.3876,0.3864,0.3863,0.3862,0.3833,0.3829,0.3826,0,0,0,0,0,0.3758,0.3747,0.3757,0.376,0.3778,0.3785,0.3787,0.3806,0.3817,0.3813,0.3828,0.3843,0.3854,0.3861,0.3863,0.3855,0.3865,0.3864,0.3862,0.3835,0.383,0.3826,0,0,0,0,0,0,0.3724,0.375,0.3761,0.3757,0.3769,0.379,0.3786,0.38,0.3809,0.3811,0.3834,0.3838,0.3836,0.3846,0.3852,0.3847,0.3862,0.3861,0.384,0.3836,0.3833,0.3831,0.3877,0,0,0,0,0,0.3717,0.372,0.3743,0.3737,0.3742,0.3763,0.3767,0.378,0.3793,0.3798,0.3812,0.3824,0.383,0.3834,0.3841,0.3835,0.384,0.3831,0.3827,0.3824,0.3823,0.3822,0.3819,0.3856,0.3856,0.3857,0,0,0.37,0.3715,0.3716,0.373,0.3741,0.3744,0.3767,0.3769,0.3772,0.3798,0.38,0.3811,0.3825,0.3823,0.3823,0.3831,0.3814,0.3822,0.382,0.382,0.382,0.3817,0.3813,0.3855,0.3856,0.3856,0,0,0.3673,0.3684,0.3681,0.3691,0.3707,0.3721,0.3721,0.3741,0.3749,0.3751,0.3772,0.3776,0.3786,0.3796,0.3802,0.378,0.3795,0.3782,0.3764,0.3763,0.376,0.3757,0.375,0.3747,0.3781,0.3781,0.3781,0,0.365,0.3656,0.3677,0.3679,0.3685,0.371,0.3708,0.3717,0.3734,0.3738,0.3747,0.3762,0.3773,0.3774,0.3769,0.3773,0.3774,0.378,0.3758,0.3756,0.3754,0.3748,0.3745,0.3779,0.3779,0.3779,0.378,0,0.3629,0.3633,0.3629,0.3645,0.3651,0.3651,0.3672,0.3676,0.369,0.3703,0.3706,0.3721,0.3732,0.3733,0.3746,0.3737,0.3742,0.3754,0.377,0.3748,0.3743,0.3741,0.3777,0.3777,0.3778,0.3778,0,0,0.358,0.3609,0.3608,0.3616,0.3636,0.364,0.3641,0.3653,0.3656,0.3667,0.367,0.3679,0.3691,0.3698,0.3713,0.3712,0.3695,0.3725,0.3725,0.3719,0.3687,0.3677,0.3674,0.3705,0.3705,0.3704,0.3686,0,0.3556,0.356,0.3579,0.3578,0.3582,0.3607,0.3608,0.3621,0.3634,0.364,0.3655,0.3661,0.3677,0.3682,0.3682,0.3697,0.3689,0.3698,0.3708,0.3708,0.3703,0.3671,0.3661,0.3643,0.3684,0.3683,0.3683,0,0.3528,0.3539,0.3538,0.356,0.3562,0.3563,0.3576,0.3582,0.3597,0.3607,0.3616,0.3633,0.3636,0.3651,0.3657,0.3663,0.3668,0.3677,0.3676,0.3678,0.3694,0.3672,0.3637,0.3635,0.368,0.368,0.368,0,0.3493,0.3508,0.3509,0.3516,0.3541,0.3541,0.3552,0.3568,0.3574,0.3586,0.359,0.3602,0.3608,0.3617,0.3637,0.3645,0.364,0.3657,0.3649,0.3649,0.3647,0.3647,0.3612,0.3649,0.3649,0.3649,0.365,0,0.3465,0.3463,0.3494,0.3495,0.3495,0.3518,0.3517,0.353,0.3544,0.3549,0.357,0.3574,0.36,0.3607,0.3622,0.3625,0.3628,0.3636,0.364,0.3634,0.3633,0.3638,0.364,0.3649,0.3649,0.3649,0.3649,0,0.3426,0.3446,0.345,0.3474,0.348,0.3478,0.3499,0.3502,0.3517,0.3522,0.3525,0.3549,0.3558,0.3579,0.3593,0.3604,0.3603,0.361,0.3598,0.3601,0.3592,0.3593,0.356,0.3557,0.3595,0.3595,0.3595,0,0.3406,0.3406,0.343,0.3435,0.3445,0.3452,0.3459,0.3482,0.3489,0.3507,0.3508,0.3519,0.3529,0.3543,0.3562,0.3574,0.3582,0.3569,0.3583,0.3578,0.3582,0.3582,0.3583,0.3566,0.3565,0.3565,0.3565,0,0.3369,0.338,0.3389,0.3402,0.341,0.3421,0.3434,0.3437,0.3463,0.3469,0.348,0.3488,0.3504,0.3515,0.353,0.3541,0.3558,0.356,0.3559,0.3553,0.3546,0.3551,0.359,0.3561,0.3561,0.3561,0.3562,0.3562,0.334,0.3341,0.3359,0.3369,0.3381,0.3393,0.3397,0.3413,0.3422,0.3437,0.3451,0.346,0.3477,0.3499,0.351,0.3518,0.3526,0.3524,0.3524,0.3523,0.3521,0.3545,0.352,0.3521,0.3521,0.3521,0.3521,0,0.3305,0.3318,0.3327,0.3345,0.3353,0.3368,0.3383,0.3389,0.3397,0.3412,0.3422,0.3435,0.3446,0.3467,0.348,0.3483,0.3491,0.3486,0.3486,0.3488,0.3512,0.3512,0.3479,0.3479,0.3479,0.3479,0.3479,0.3479,0.3288,0.3291,0.3304,0.3315,0.3328,0.3338,0.3345,0.3357,0.3369,0.3382,0.3392,0.3406,0.3423,0.3438,0.345,0.3456,0.346,0.3452,0.346,0.3482,0.3486,0.349,0.349,0.3453,0.3453,0.3436,0.3436,0.3436]}]]